Home > Weather > Omaha > Past weeks

Flag for USA Past Weather in Omaha, Nebraska, USA — Yesterday and Last 2 Weeks

Now
85 °F

Sunny.


Feels Like: 91 °F
Forecast: 78 / 95 °F
Wind: 6 mph from Southeast

Location: Millard Airport

Current Time: Jul 23, 2016 at 12:05:04 PM

Latest Report: Jul 23, 2016 at 11:15 AM


Visibility: 10 mi

Pressure: 29.83 "Hg

Humidity: 67%

Dew Point: 72 °F

Location of OmahaLocation

Past Weather in Omaha — Graph

°F

Omaha Temperature Yesterday

Maximum temperature yesterday: 94 °F (at 4:15 PM)
Minimum temperature yesterday: 78 °F (at 7:15 AM)
Average temperature yesterday: 87 °F

High & Low Weather Summary for the Past Weeks

 TemperatureHumidityPressure
High97 °F (Jul 21, 4:55 PM)96% (Jul 14, 2:55 AM)30.19 "Hg (Jul 14, 2:55 AM)
Low59 °F (Jul 16, 3:15 AM)37% (Jul 8, 12:55 PM)29.61 "Hg (Jul 11, 7:35 PM)
Average80 °F75%29.95 "Hg
* Reported Jul 8 10:15 AM — Jul 23 10:55 AM, Omaha, Weather by CustomWeather, © 2016

Note: Actual official high and low records may vary slightly from our data, if they occured in-between our weather recording intervals... More about our weather records

Advertising

Omaha Weather History for the Previous 24 Hours

Scroll right to see more
 ConditionsComfort  
Time TempWeatherWind HumidityBarometerVisibility
10:55 AM
Sat, Jul 23
83 °FSunny.8 mph72%29.83 "Hg10 mi
10:35 AM83 °FSunny.3 mph73%29.83 "Hg10 mi
10:15 AM82 °FScattered clouds.6 mph73%29.83 "Hg10 mi
9:55 AM82 °FSunny.No wind73%29.83 "Hg10 mi
9:35 AM83 °FScattered clouds.5 mph67%29.83 "Hg10 mi
9:15 AM83 °FSunny.No wind68%29.84 "Hg10 mi
8:55 AM83 °FScattered clouds.6 mph67%29.84 "Hg10 mi
8:35 AM83 °FSunny.6 mph67%29.85 "Hg10 mi
8:15 AM83 °FSunny.8 mph66%29.85 "Hg10 mi
7:55 AM82 °FScattered clouds.6 mph69%29.85 "Hg10 mi
7:35 AM83 °FScattered clouds.7 mph66%29.86 "Hg10 mi
7:15 AM82 °FScattered clouds.5 mph68%29.86 "Hg10 mi
6:55 AM83 °FPassing clouds.5 mph66%29.87 "Hg10 mi
6:35 AM83 °FPassing clouds.7 mph67%29.87 "Hg10 mi
6:15 AM84 °FPassing clouds.10 mph65%29.88 "Hg10 mi
5:55 AM83 °FPassing clouds.7 mph68%29.87 "Hg10 mi
5:35 AM83 °FPassing clouds.9 mph70%29.88 "Hg10 mi
5:15 AM83 °FOvercast.9 mph70%29.88 "Hg10 mi
4:55 AM83 °FOvercast.8 mph70%29.86 "Hg10 mi
4:35 AM84 °FPassing clouds.9 mph69%29.86 "Hg10 mi
4:15 AM82 °FPassing clouds.8 mph78%29.86 "Hg10 mi
3:55 AM81 °FClear.6 mph80%29.88 "Hg10 mi
3:15 AM82 °FPassing clouds.7 mph81%29.89 "Hg10 mi
2:55 AM81 °FPassing clouds.3 mph82%29.90 "Hg10 mi
2:35 AM82 °FPassing clouds.3 mph81%29.90 "Hg10 mi
2:15 AM82 °FClear.5 mph80%29.90 "Hg10 mi
1:55 AM82 °FClear.6 mph79%29.90 "Hg10 mi
1:35 AM83 °FClear.6 mph80%29.89 "Hg10 mi
1:15 AM82 °FClear.3 mph85%29.90 "Hg10 mi
12:55 AM83 °FClear.6 mph84%29.90 "Hg10 mi
12:35 AM83 °FClear.5 mph86%29.90 "Hg10 mi
12:15 AM83 °FClear.6 mph90%29.91 "Hg10 mi
11:55 PM
Fri, Jul 22
84 °FClear.5 mph90%29.92 "Hg10 mi
11:35 PM84 °FClear.7 mph90%29.91 "Hg10 mi
11:15 PM84 °FClear.3 mph90%29.91 "Hg10 mi
10:55 PM85 °FClear.10 mph90%29.90 "Hg10 mi
10:35 PM85 °FClear.12 mph89%29.91 "Hg10 mi
10:15 PM86 °FClear.9 mph86%29.90 "Hg10 mi
9:55 PM87 °FClear.8 mph86%29.89 "Hg10 mi
9:35 PM87 °FSunny.5 mph80%29.89 "Hg10 mi
9:15 PM88 °FSunny.No wind73%29.88 "Hg10 mi
8:55 PM89 °FSunny.5 mph73%29.89 "Hg10 mi
8:15 PM91 °FSunny.3 mph70%29.89 "Hg10 mi
7:55 PM91 °FSunny.7 mph72%29.89 "Hg10 mi
7:35 PM92 °FSunny.7 mph73%29.89 "Hg10 mi
7:15 PM92 °FSunny.6 mph73%29.89 "Hg10 mi
6:55 PM92 °FSunny.7 mph73%29.89 "Hg10 mi
6:35 PM93 °FSunny.9 mph70%29.89 "Hg10 mi
6:15 PM93 °FSunny.9 mph70%29.89 "Hg10 mi
5:55 PM93 °FSunny.7 mph71%29.90 "Hg10 mi
5:35 PM93 °FSunny.9 mph73%29.90 "Hg10 mi
5:15 PM93 °FSunny.12 mph73%29.91 "Hg10 mi
4:55 PM93 °FSunny.10 mph72%29.91 "Hg10 mi
4:35 PM93 °FSunny.12 mph70%29.91 "Hg10 mi
4:15 PM94 °FSunny.13 mph70%29.92 "Hg10 mi
3:55 PM93 °FScattered clouds.10 mph69%29.92 "Hg10 mi
3:35 PM93 °FScattered clouds.13 mph69%29.92 "Hg10 mi
3:15 PM93 °FScattered clouds.12 mph69%29.93 "Hg10 mi
2:55 PM92 °FPartly sunny.13 mph66%29.93 "Hg10 mi
2:35 PM91 °FScattered clouds.9 mph66%29.94 "Hg10 mi
2:15 PM92 °FSunny.12 mph63%29.94 "Hg10 mi
1:55 PM91 °FScattered clouds.14 mph64%29.94 "Hg10 mi
1:35 PM91 °FScattered clouds.16 mph66%29.95 "Hg10 mi
1:15 PM90 °FScattered clouds.10 mph68%29.96 "Hg10 mi
12:55 PM90 °FSunny.12 mph67%29.96 "Hg10 mi
12:35 PM89 °FSunny.13 mph68%29.96 "Hg10 mi
12:15 PM89 °FSunny.15 mph68%29.95 "Hg10 mi
Weather by CustomWeather, © 2016

See weather overviewHow to use our weather pages